Location: Brachbach
(49.1847°N, 9.7240°E)
Time: 06:49:17
(UTC+00:00)

FO-29 - Pass Details

Date: 19 March 2026
Orbit: 801 x 1320 km, 98.5° (Epoch: 17 April)

Event Time Altitude Azimuth Distance (km) Brightness Sun altitude
Rises 19:05:44 0° 17° (NNE) 4,168 12.8 -15.8°
Reaches altitude 10° 19:08:31 10° 24° (NNE) 3,250 12.2 -16.2°
Maximum altitude 19:15:47 46° 96° (E) 1,711 10.3 -17.4°
Drops below altitude 10° 19:23:15 10° 167° (SSE) 3,337 12.0 -18.5°
Sets 19:26:07 0° 174° (S) 4,288 12.6 -18.9°
